Location: *
(50.9167°S, 179.4000°W)
Time: 20:33:08
(UTC+00:00)

Cosmos 1934 Rocket - Pass Details

Date: 03 March 2024
Orbit: 937 x 999 km, 83.0° (Epoch: 16 April)

Event Time Altitude Azimuth Distance (km) Brightness Sun altitude
Exits shadow 15:01:07 34° 351° (N) 1,517 4.6 -21.8°
Maximum altitude 15:03:59 89° 261° (W) 970 3.9 -21.5°
Drops below altitude 10° 15:10:16 10° 170° (S) 2,736 7.0 -20.7°
Sets 15:12:49 0° 170° (S) 3,698 7.8 -20.4°
